Temperature
20 21 20 20 20 19 19 19 19 19 19 19 19 19 19 19 19 19 19 19 19 19 19 19 19 19 19 19 19 19 19 18 18 18 18 19 18 18 18 18 18 18 18
21 21 20 20 20 19 19 19 19 19 19 19 19 19 19 19 19 19 19 19 19 19 19 19 19 18 18 18 18 18 18 18 18 18 18 18 18 18 18 18 18 18 18
21 21 20 20 20 19 19 19 19 19 19 19 19 19 19 19 19 19 19 19 19 19 19 18 18 18 18 18 18 18 18 18 18 18 18 18 18 18 18 18 18 18 18
21 20 20 20 20 19 19 19 19 19 19 19 19 19 19 19 19 19 19 19 18 18 18 18 18 18 18 18 18 18 18 18 18 18 18 18 18 18 18 18 18 18 18
21 20 20 20 20 19 19 19 19 19 19 19 19 19 19 19 19 19 18 18 18 18 18 18 18 18 18 18 18 18 18 18 18 18 18 18 18 18 18 18 18 18 18
21 20 21 20 20 20 19 19 19 19 19 19 19 19 19 19 19 19 18 18 18 18 18 18 18 18 18 18 18 18 18 18 18 18 18 18 18 18 18 18 18 18 18
21 20 21 20 20 20 19 19 19 19 19 19 19 19 19 19 19 19 18 18 18 18 18 18 18 18 18 18 18 18 18 18 18 18 18 18 18 18 18 18 18 18 18
21 20 21 20 20 20 20 19 19 19 19 19 19 19 19 19 19 19 19 18 19 19 18 18 18 18 18 18 18 18 18 18 18 18 18 18 18 18 18 18 18 18 18
22 21 20 20 20 20 20 20 19 19 19 19 19 19 19 19 19 19 19 19 19 19 19 19 19 19 19 19 18 18 18 18 18 18 18 18 18 18 18 18 18 18 18
22 21 21 20 20 20 20 20 20 19 19 19 19 19 19 19 19 19 19 19 19 19 19 19 19 19 19 19 19 19 19 18 18 18 18 18 18 18 18 18 18 18 18
22 21 21 20 20 20 20 19 20 19 19 19 19 19 19 19 19 19 19 19 19 19 19 19 19 19 19 19 19 19 19 19 19 19 18 18 18 18 18 18 18 18 18
22 21 21 21 20 20 20 20 19 19 19 19 19 19 19 19 19 19 19 19 19 19 19 19 19 19 18 18 19 19 19 19 18 18 19 19 18 18 18 18 18 18 18
22 21 21 20 20 20 20 20 20 19 19 19 19 19 19 19 19 19 19 19 19 19 19 18 18 19 18 18 18 19 19 19 18 18 19 19 18 18 18 18 18 18 18
22 21 21 20 20 20 20 20 20 20 19 19 19 19 19 19 19 19 19 19 19 18 18 19 19 19 18 18 19 19 19 19 18 18 19 19 18 18 18 18 18 18 18
21 21 20 20 20 19 20 20 19 19 19 19 19 19 19 19 19 19 19 19 19 18 18 19 19 19 19 19 19 19 19 19 19 18 18 18 18 18 18 18 18 18 18
21 21 20 20 20 20 20 20 19 19 19 19 19 19 19 19 19 19 18 19 19 19 19 19 19 19 19 19 19 19 19 19 19 18 18 18 18 18 18 18 18 18 18
21 21 20 20 20 20 19 19 19 19 19 19 19 19 19 19 19 19 18 19 19 19 19 18 19 19 19 19 19 19 19 18 18 18 18 18 18 18 18 18 18 18 18
21 21 20 20 20 20 19 19 19 19 19 19 19 19 19 19 18 18 18 18 18 18 18 18 19 19 19 19 19 19 19 18 18 18 18 18 18 18 18 18 18 18 18
21 20 20 20 19 19 19 19 19 19 19 19 19 19 19 18 18 18 18 18 18 18 18 18 18 18 19 19 19 19 19 19 19 18 18 18 18 18 18 18 18 18 18
21 20 20 20 19 19 19 19 19 19 19 19 19 19 18 18 18 18 18 18 18 18 18 18 18 18 18 19 19 19 19 19 19 18 18 18 18 18 18 18 18 17 17
21 20 20 20 19 19 19 19 19 19 19 18 19 18 18 18 18 18 18 18 18 18 18 18 18 18 18 18 18 18 19 19 19 18 18 18 18 18 18 18 17 17 17
20 20 20 19 19 19 19 19 19 19 19 18 18 18 18 18 18 18 18 18 18 18 18 18 18 18 18 18 18 18 18 19 19 19 18 18 18 18 18 17 17 17 17
21 20 20 19 19 19 19 19 19 19 19 18 18 18 18 18 18 18 18 18 18 17 17 18 18 18 18 18 18 18 18 18 18 18 18 18 18 18 18 18 17 17 17
21 20 20 19 19 19 19 19 19 19 19 18 18 18 18 18 18 18 18 18 17 17 17 17 17 17 17 17 18 18 18 18 18 18 18 18 18 18 18 18 17 17 17
22 21 20 20 19 19 19 19 19 18 18 18 18 18 18 18 18 17 17 17 17 17 17 17 17 17 17 17 17 17 18 18 18 18 18 18 18 18 18 17 17 17 17
22 21 20 20 20 19 19 19 19 18 18 18 18 18 18 18 17 17 17 17 17 17 17 17 17 17 17 17 17 17 17 17 17 17 17 18 18 18 18 17 17 17 17
Wind_Speed
10 11 11 10 9 7 7 8 8 8 8 8 8 8 8 8 8 8 8 8 8 8 8 8 8 8 8 8 8 8 9 9 8 9 10 9 9 9 9 8 7 8 10
12 12 12 11 9 8 8 8 8 8 9 9 8 8 8 7 7 7 8 7 7 7 7 7 8 8 8 8 8 8 9 9 8 9 10 9 9 9 9 9 8 8 11
13 12 13 11 9 9 9 8 8 9 9 8 8 8 7 7 6 7 7 7 7 7 7 7 7 8 8 8 8 8 9 9 9 9 9 8 9 10 9 9 9 10 11
13 12 12 11 10 9 8 7 8 9 9 9 9 8 7 7 6 6 6 6 6 6 7 7 8 8 8 8 8 9 8 9 10 10 8 8 8 11 11 10 10 10 11
13 13 13 12 11 9 7 7 8 9 9 9 9 7 7 7 6 6 5 5 5 5 6 7 8 9 9 9 9 9 9 10 11 11 8 7 6 12 13 12 11 11 11
12 14 14 12 11 9 9 9 10 9 9 9 8 7 7 6 6 5 4 4 3 4 6 7 9 10 10 10 10 10 11 11 11 10 8 7 8 13 13 13 11 11 11
12 13 13 13 11 10 11 11 10 9 9 8 8 7 6 6 6 5 4 3 3 4 5 7 8 10 9 10 10 10 11 11 10 7 6 6 9 13 13 13 12 11 11
12 12 12 13 11 10 11 10 9 9 8 7 7 6 6 5 5 5 3 3 3 4 5 6 8 8 9 9 10 10 10 9 8 7 6 7 10 12 13 13 12 11 11
11 12 10 11 10 10 11 10 9 9 8 7 6 5 5 5 4 4 3 3 4 4 5 6 6 6 7 8 9 10 10 8 5 5 6 7 10 11 12 13 12 11 11
9 10 8 9 9 9 10 10 9 9 7 7 5 4 5 5 4 4 4 3 4 5 5 5 5 5 6 7 8 9 9 8 7 6 5 7 10 11 12 12 12 11 11
8 7 7 7 7 6 8 10 9 9 7 6 5 5 4 4 4 5 4 5 4 4 4 5 5 6 6 7 9 10 9 7 5 4 5 9 11 11 11 11 11 10 10
7 7 7 7 6 4 4 7 5 5 6 5 4 4 3 2 2 3 6 6 5 5 5 5 6 7 7 5 7 9 7 7 5 4 6 11 12 12 11 11 11 10 10
7 6 7 7 5 4 4 4 3 3 4 3 3 3 2 1 1 2 3 4 5 5 3 3 4 4 4 3 3 5 4 3 4 5 7 12 12 12 11 11 10 10 10
7 7 7 7 6 5 4 3 2 2 2 2 3 2 2 1 1 1 1 0 2 2 2 2 2 2 2 3 3 3 3 2 4 5 8 12 12 12 12 11 10 10 10
7 7 8 7 6 4 4 2 3 2 2 3 3 2 2 2 1 2 1 0 1 1 2 1 1 0 1 1 2 2 2 2 4 4 6 10 12 12 12 11 11 11 10
6 7 7 7 6 4 3 1 1 1 2 3 3 3 3 2 2 2 1 0 1 0 1 1 1 1 0 0 1 1 1 3 4 5 6 8 10 11 11 11 11 10 10
7 7 6 6 6 4 3 1 1 1 3 2 3 3 3 2 1 1 0 0 0 0 1 1 1 1 2 1 1 1 1 2 3 5 6 7 8 9 10 10 9 9 9
8 7 4 4 6 5 2 1 1 2 2 2 3 3 2 2 2 1 1 1 0 0 0 1 0 1 0 0 1 1 2 3 3 4 5 6 7 7 9 10 10 9 9
8 6 4 5 5 4 2 1 1 1 2 2 3 3 2 2 2 1 1 1 1 1 1 1 1 0 0 0 1 2 2 3 3 3 3 5 6 7 8 10 10 9 9
8 7 5 4 4 2 2 2 1 1 2 2 2 2 2 2 2 1 0 1 1 1 2 2 1 0 1 1 2 1 1 2 2 3 3 3 4 6 7 8 8 8 9
8 7 6 4 4 2 1 1 1 1 1 2 2 2 2 2 2 2 2 1 1 2 2 2 1 1 1 1 1 1 2 3 3 3 2 2 2 2 5 7 7 6 7
8 7 6 4 4 2 1 0 1 1 1 2 2 2 2 2 2 1 1 2 2 1 1 2 2 2 2 1 1 1 1 1 1 3 3 3 3 2 3 4 6 6 5
8 7 6 5 4 3 2 1 1 1 1 2 2 2 2 2 2 3 3 3 3 1 1 1 2 2 2 1 1 1 1 1 1 1 2 2 2 2 2 3 4 6 6
8 8 6 5 4 3 2 1 1 2 2 1 1 2 2 1 1 1 2 2 3 3 2 2 2 2 2 2 2 1 1 0 1 1 1 1 3 2 2 2 3 5 5
9 8 7 6 5 4 3 2 0 1 1 1 2 2 2 1 1 2 2 2 2 2 3 3 3 3 2 2 2 2 2 1 2 1 2 1 1 2 3 2 1 3 5
8 8 8 7 5 4 3 2 1 1 1 1 1 1 1 2 2 2 2 1 1 2 2 2 2 2 3 3 3 3 2 1 2 1 2 2 2 2 3 3 2 2 4
Wind_Direction
88 95 99 94 88 90 95 101 104 106 109 112 114 114 118 122 121 119 126 124 130 135 143 149 149 152 150 145 141 138 139 138 135 135 138 138 141 145 149 152 156 148 142
98 99 101 95 91 89 95 102 106 105 108 111 113 116 119 124 130 133 134 135 138 144 151 156 157 158 159 159 155 150 151 150 150 153 154 155 159 161 163 166 162 151 148
104 105 102 95 91 87 91 99 107 109 113 116 117 118 121 123 128 134 142 145 147 155 159 160 160 161 166 167 165 162 163 163 163 169 173 174 173 172 170 169 163 159 158
104 102 100 97 94 91 90 100 110 114 116 119 121 118 119 120 126 134 140 150 160 167 168 168 168 169 169 172 173 172 175 179 183 189 194 190 181 174 173 172 169 166 165
102 104 106 103 98 94 92 106 114 115 117 119 122 119 116 115 117 119 130 144 159 172 172 171 172 176 175 177 183 187 193 199 201 207 205 191 176 167 171 172 173 171 169
109 108 111 110 103 94 88 106 109 113 116 116 118 120 118 117 119 118 121 129 152 173 180 181 184 179 181 184 189 195 202 209 212 211 204 189 168 167 173 175 176 178 178
106 111 116 118 111 100 93 99 102 105 108 112 113 113 115 113 113 110 108 106 123 150 163 174 178 178 184 190 193 201 207 216 217 202 186 178 173 173 177 177 181 184 186
108 112 120 124 118 111 107 104 104 107 106 106 111 112 111 110 113 114 108 95 115 139 156 164 171 181 189 195 200 206 217 229 209 186 180 177 177 176 177 178 181 185 186
106 112 125 131 131 127 119 114 113 114 117 118 118 122 126 128 128 125 115 100 117 135 146 156 166 179 194 204 209 212 217 226 219 195 185 174 171 173 175 178 182 185 186
99 111 124 128 134 139 134 131 132 131 133 136 139 144 151 159 157 155 139 130 124 132 143 156 165 178 190 203 212 218 219 230 211 197 179 172 169 172 174 176 180 184 189
94 99 107 109 114 127 133 136 148 146 148 152 161 175 179 180 177 170 149 149 154 156 162 169 178 187 199 210 217 222 226 225 198 172 168 162 166 170 172 175 179 182 185
104 104 96 92 96 108 108 125 141 139 144 155 144 157 168 176 138 127 144 161 172 186 191 193 199 204 212 213 215 219 225 216 189 166 168 166 173 173 173 177 181 184 186
113 101 101 94 90 86 79 105 107 112 127 129 118 120 123 102 103 107 140 172 190 197 196 182 205 214 205 196 203 202 210 216 163 167 173 169 172 175 177 179 185 190 192
110 101 93 91 82 67 61 68 94 97 109 96 97 86 84 79 49 81 92 130 192 177 167 160 177 203 192 194 197 193 194 187 134 145 163 167 173 178 182 186 191 195 197
111 106 97 94 87 79 64 25 71 74 84 90 89 70 69 73 29 45 55 81 253 167 139 113 80 215 206 213 211 166 179 142 127 129 156 168 172 177 183 191 197 202 202
114 104 108 108 105 97 93 54 34 80 95 85 83 62 44 52 53 22 51 25 358 102 135 146 163 211 274 244 218 172 140 126 128 138 151 166 171 175 181 188 196 201 201
116 101 107 120 112 108 108 133 103 80 90 87 85 85 50 16 53 56 14 100 70 348 173 192 187 201 191 201 186 179 140 126 144 146 146 161 164 174 179 182 185 187 193
108 101 94 102 110 115 106 55 45 66 78 78 70 82 70 25 20 44 356 9 0 192 252 225 180 251 111 225 212 211 158 154 160 155 152 164 162 169 180 186 189 193 196
108 108 102 85 99 114 118 121 111 76 76 72 69 56 44 44 21 64 21 351 322 343 308 313 96 314 243 247 235 194 168 169 173 161 159 161 160 165 166 181 191 197 196
115 111 106 97 96 112 125 112 80 87 89 89 80 72 45 28 27 351 94 350 350 25 9 14 356 331 282 274 268 166 177 181 177 163 183 164 170 173 166 168 177 197 199
118 116 113 112 104 98 97 130 145 134 129 115 111 89 66 23 6 354 2 7 22 38 3 353 329 290 262 278 284 239 201 196 192 175 169 165 163 171 162 161 165 174 185
123 122 123 122 125 133 128 125 139 125 132 101 78 94 77 45 0 9 26 356 22 53 3 347 332 321 302 277 266 271 222 200 238 179 162 175 181 185 167 163 159 166 176
134 137 140 137 133 137 132 137 114 116 82 85 102 96 82 60 34 14 19 2 358 4 23 335 341 312 309 296 281 300 294 268 262 176 191 170 170 165 167 151 163 166 176
144 142 133 135 137 136 134 103 100 124 117 100 104 102 107 86 63 43 27 9 3 8 28 355 18 330 323 306 311 307 270 354 310 295 257 183 185 177 190 194 171 162 167
150 147 141 135 134 137 143 138 167 84 109 117 108 115 131 133 98 47 49 25 13 13 26 12 25 1 344 335 323 317 318 308 293 259 283 269 229 194 182 178 171 160 169
150 146 143 139 140 145 156 151 143 105 81 71 81 107 139 108 83 63 64 27 19 4 20 24 10 1 349 345 335 336 331 317 302 281 264 277 258 211 182 168 179 167 178
Height
1488 1487 1486 1486 1486 1486 1486 1486 1487 1488 1490 1491 1492 1494 1495 1497 1498 1500 1502 1504 1505 1507 1509 1510 1512 1514 1515 1517 1519 1521 1523 1524 1526 1527 1529 1531 1533 1535 1537 1539 1540 1542 1543
1488 1487 1487 1487 1486 1486 1486 1487 1487 1489 1491 1492 1494 1495 1496 1498 1499 1501 1502 1504 1506 1507 1508 1510 1512 1513 1515 1517 1519 1520 1522 1524 1526 1528 1530 1532 1533 1535 1537 1539 1540 1541 1543
1489 1488 1488 1488 1488 1487 1487 1488 1489 1491 1492 1493 1495 1496 1498 1499 1500 1501 1503 1504 1506 1507 1508 1510 1511 1513 1515 1517 1518 1520 1522 1524 1526 1528 1530 1531 1533 1535 1537 1538 1540 1541 1543
1490 1490 1489 1489 1489 1488 1488 1489 1490 1492 1493 1494 1496 1497 1499 1500 1501 1502 1503 1504 1505 1506 1507 1509 1510 1512 1514 1516 1518 1520 1522 1524 1526 1528 1529 1531 1533 1535 1536 1538 1539 1541 1542
1492 1491 1491 1491 1490 1489 1487 1486 1490 1492 1494 1496 1497 1499 1500 1501 1502 1502 1503 1503 1504 1504 1505 1507 1508 1511 1513 1515 1517 1519 1521 1523 1525 1527 1529 1531 1533 1534 1535 1537 1538 1540 1541
1493 1493 1493 1493 1492 1490 1484 1482 1489 1493 1496 1497 1499 1500 1501 1501 1502 1503 1503 1502 1501 1501 1502 1504 1505 1509 1512 1515 1517 1519 1521 1523 1525 1527 1529 1530 1532 1533 1534 1536 1538 1539 1540
1495 1494 1495 1495 1494 1493 1490 1490 1493 1496 1497 1498 1500 1501 1502 1502 1503 1503 1502 1501 1499 1498 1499 1501 1504 1507 1511 1514 1516 1518 1520 1522 1524 1526 1528 1529 1531 1532 1533 1535 1536 1538 1539
1496 1496 1496 1497 1497 1496 1496 1496 1497 1498 1499 1500 1502 1503 1503 1504 1504 1504 1503 1501 1498 1498 1499 1501 1504 1507 1511 1513 1516 1518 1520 1521 1523 1525 1527 1528 1530 1531 1532 1534 1535 1537 1538
1498 1498 1498 1499 1499 1499 1499 1500 1500 1501 1501 1503 1504 1504 1505 1505 1505 1505 1504 1502 1500 1500 1501 1502 1505 1508 1511 1513 1515 1517 1519 1521 1522 1524 1526 1527 1528 1529 1531 1532 1534 1535 1537
1500 1500 1500 1501 1501 1501 1502 1502 1502 1503 1504 1505 1505 1506 1506 1506 1506 1506 1506 1504 1503 1502 1504 1505 1507 1509 1511 1513 1515 1517 1519 1521 1522 1523 1524 1526 1527 1528 1530 1531 1533 1534 1535
1501 1502 1502 1503 1503 1504 1504 1504 1504 1505 1506 1506 1507 1507 1508 1508 1508 1508 1508 1507 1506 1506 1507 1508 1510 1511 1513 1514 1516 1518 1519 1521 1522 1523 1523 1525 1526 1527 1528 1530 1531 1533 1534
1502 1503 1503 1504 1504 1505 1506 1506 1507 1507 1507 1508 1508 1508 1509 1509 1510 1510 1509 1509 1509 1509 1510 1511 1512 1513 1514 1515 1516 1518 1519 1520 1521 1521 1522 1523 1524 1526 1527 1528 1530 1531 1533
1503 1504 1505 1505 1505 1506 1507 1508 1508 1509 1509 1509 1509 1509 1510 1510 1510 1510 1510 1510 1510 1510 1511 1512 1512 1514 1515 1516 1517 1518 1519 1520 1521 1520 1521 1522 1523 1524 1525 1526 1528 1530 1531
1504 1505 1505 1506 1506 1507 1508 1508 1509 1510 1510 1510 1510 1510 1510 1511 1511 1511 1511 1511 1511 1512 1512 1513 1513 1515 1516 1516 1517 1518 1519 1520 1519 1520 1520 1521 1521 1522 1524 1525 1526 1527 1529
1504 1505 1506 1506 1507 1507 1508 1509 1510 1510 1511 1511 1510 1511 1511 1511 1511 1511 1511 1512 1512 1513 1513 1514 1515 1515 1516 1517 1517 1518 1518 1518 1519 1519 1519 1520 1520 1521 1522 1523 1524 1525 1527
1505 1506 1507 1507 1507 1508 1508 1509 1510 1511 1511 1511 1511 1511 1511 1512 1511 1512 1512 1512 1512 1513 1514 1514 1515 1515 1516 1516 1517 1517 1517 1518 1518 1518 1518 1519 1518 1519 1520 1521 1522 1524 1525
1505 1506 1507 1508 1508 1508 1509 1510 1511 1512 1512 1512 1512 1511 1511 1512 1512 1512 1512 1512 1513 1513 1514 1514 1515 1515 1515 1516 1517 1517 1517 1517 1517 1518 1518 1517 1518 1518 1519 1520 1521 1522 1523
1505 1506 1507 1508 1508 1508 1509 1510 1511 1512 1512 1512 1512 1512 1512 1512 1512 1512 1512 1512 1513 1513 1513 1514 1514 1515 1515 1516 1516 1516 1516 1516 1517 1517 1517 1517 1517 1517 1518 1519 1519 1520 1521
1505 1506 1507 1508 1508 1509 1510 1510 1511 1512 1512 1512 1512 1512 1512 1512 1512 1512 1512 1512 1512 1513 1513 1514 1513 1514 1514 1515 1515 1515 1516 1516 1516 1516 1517 1517 1517 1517 1517 1518 1518 1519 1520
1504 1505 1507 1508 1508 1509 1510 1510 1511 1512 1512 1512 1512 1511 1511 1511 1511 1511 1512 1512 1512 1512 1512 1513 1513 1513 1513 1513 1514 1515 1514 1515 1515 1515 1516 1516 1516 1517 1516 1517 1517 1517 1518
1504 1505 1506 1507 1508 1509 1510 1510 1511 1511 1512 1512 1511 1511 1511 1511 1511 1511 1511 1511 1511 1511 1511 1511 1511 1512 1512 1513 1513 1513 1514 1514 1514 1514 1515 1515 1516 1516 1516 1515 1515 1515 1516
1504 1505 1506 1507 1508 1509 1509 1510 1511 1511 1512 1512 1511 1511 1511 1511 1511 1511 1510 1510 1511 1510 1510 1510 1511 1511 1511 1512 1512 1512 1513 1514 1513 1514 1513 1514 1514 1515 1514 1514 1514 1514 1514
1504 1505 1506 1507 1508 1508 1509 1510 1511 1511 1511 1512 1511 1511 1510 1510 1510 1510 1509 1510 1510 1510 1509 1510 1510 1510 1510 1511 1511 1512 1512 1512 1512 1512 1512 1513 1513 1513 1513 1513 1512 1512 1513
1504 1505 1506 1507 1508 1508 1509 1510 1511 1511 1511 1511 1511 1511 1510 1510 1509 1509 1509 1509 1509 1509 1508 1508 1508 1509 1509 1509 1510 1510 1511 1511 1511 1511 1512 1511 1512 1512 1512 1512 1511 1511 1511
1503 1505 1506 1507 1507 1508 1509 1509 1510 1511 1511 1511 1511 1511 1510 1509 1508 1508 1508 1508 1508 1507 1507 1507 1507 1507 1507 1508 1508 1509 1509 1510 1510 1510 1510 1510 1510 1510 1510 1510 1510 1510 1509
1503 1504 1505 1506 1507 1508 1508 1509 1509 1510 1510 1510 1510 1510 1510 1509 1508 1508 1507 1507 1506 1506 1506 1506 1506 1506 1506 1506 1507 1507 1508 1508 1508 1509 1508 1508 1509 1509 1508 1508 1509 1509 1508